Theta_e
301 301 302 302 303 303 303 304 304 304 305 305 305 306 307 307 307 307 307 307 308 308 308 308 309 309 309 309 309 309 309 308 308 308 307 307 308 308 308 308 308 308 308 308 310 309 309 308 308 309 310 309 309 309 308 309 308 306 306 305 303 302 301 299 297 297 300 295 294 293 290 290 289 290 290 290 289 289 290 291 291 290 289 290 292
299 300 301 302 301 301 301 302 302 303 303 304 304 304 304 304 304 304 304 305 306 305 306 306 306 307 306 307 307 308 307 307 307 306 305 305 305 306 306 306 305 306 306 306 306 307 307 305 305 306 306 306 306 306 305 302 301 301 300 300 299 300 300 299 298 297 297 294 291 290 289 290 289 290 288 287 287 288 288 289 289 289 288 289 290
299 299 300 300 300 300 300 300 300 300 301 302 302 302 302 302 303 302 303 304 304 304 304 304 304 304 304 304 304 305 305 305 305 304 304 303 303 303 304 304 303 303 303 303 304 304 302 301 301 302 305 303 302 302 301 301 301 300 299 299 298 298 299 298 298 296 297 298 299 292 289 288 289 288 288 287 287 288 287 287 287 287 288 289 290
298 298 299 299 299 299 299 299 299 299 299 300 299 300 300 300 300 300 301 302 301 302 302 302 301 301 301 301 301 301 300 300 301 301 301 302 301 301 302 302 302 302 302 302 302 301 300 299 300 300 300 300 300 300 301 300 298 297 297 298 297 297 298 298 297 297 297 297 296 291 289 287 287 287 287 287 286 286 286 286 287 287 287 288 289
297 298 298 298 298 298 298 298 297 297 297 298 298 298 298 298 299 299 299 300 301 300 301 300 299 299 298 299 299 299 299 299 299 299 300 300 300 300 300 300 300 300 301 301 297 300 299 299 299 300 299 298 298 298 299 298 298 297 297 297 296 297 297 297 296 296 295 295 295 289 288 287 287 286 286 284 284 285 285 284 284 285 286 287 287
297 297 298 298 298 297 297 297 297 297 296 296 296 297 297 297 297 298 298 298 298 299 299 299 299 298 298 298 298 297 298 297 297 297 297 298 298 298 298 298 298 298 298 298 299 299 298 298 299 299 298 298 298 298 299 298 299 298 297 296 296 296 295 295 295 295 294 294 294 291 285 285 284 284 285 285 283 282 282 283 284 284 285 285 286
296 296 297 297 297 296 296 296 296 296 296 296 296 296 296 296 296 296 296 296 296 297 298 298 298 298 298 298 297 297 297 297 298 298 298 298 297 296 296 296 296 297 297 297 298 298 298 298 297 297 297 297 297 298 298 297 297 297 297 297 296 295 294 294 293 293 293 292 293 293 289 286 285 284 284 284 284 283 281 281 280 283 283 284 284
295 296 296 296 296 295 295 295 295 295 295 296 296 296 296 296 296 296 295 296 296 296 296 296 297 297 297 297 297 297 296 296 296 296 296 297 296 295 296 295 295 295 295 296 296 297 297 297 297 297 297 297 297 297 297 297 298 297 297 296 295 293 293 293 292 292 292 292 292 291 289 286 284 285 284 283 282 282 282 281 279 279 281 283 283
295 295 295 294 294 294 294 294 295 294 294 295 294 294 295 295 295 295 295 296 296 296 296 295 295 296 296 296 296 296 295 294 295 295 295 295 296 295 295 295 295 294 295 295 295 295 295 296 296 297 296 292 292 293 294 295 296 295 296 295 292 292 292 292 292 291 291 291 290 291 288 285 283 282 281 280 280 280 281 282 281 281 281 281 282
294 294 294 293 293 293 293 293 293 294 293 293 293 293 293 293 293 294 294 294 295 295 295 295 295 295 295 296 296 295 295 296 292 291 292 293 294 294 294 294 294 294 294 294 294 295 295 295 296 291 290 290 290 291 292 292 292 293 294 293 292 291 290 290 290 291 290 289 289 289 287 285 283 283 282 282 282 283 281 281 279 281 281 280 281
293 293 293 293 293 293 293 292 292 292 292 292 292 291 292 292 292 292 292 293 293 294 294 294 295 295 295 295 295 295 295 295 291 293 293 293 293 294 293 293 294 293 293 293 292 293 294 295 295 293 291 289 289 289 291 291 291 291 291 291 292 292 290 290 290 290 290 289 290 289 288 287 285 283 283 282 282 281 281 281 280 280 279 278 276
292 292 292 292 292 291 291 291 291 291 291 290 290 290 290 290 290 291 291 291 292 292 292 293 294 294 295 295 294 295 295 292 292 292 292 292 292 293 293 293 293 293 293 293 294 294 294 294 295 295 294 293 293 293 291 290 290 291 291 291 291 291 292 291 290 290 289 289 289 289 288 287 286 283 282 282 282 282 282 282 280 280 279 279 279
291 291 291 291 291 291 290 290 290 290 290 289 289 288 289 289 289 289 289 290 290 291 292 292 292 293 293 293 293 294 294 293 292 292 292 292 292 292 293 293 293 293 293 293 293 294 294 293 293 294 294 289 289 291 292 292 290 290 290 289 290 290 291 292 292 291 291 289 289 288 289 288 286 284 283 283 283 281 282 281 281 281 281 280 280
291 290 290 290 290 290 289 288 289 289 289 288 289 288 288 288 289 289 289 289 289 290 290 290 291 292 292 292 292 293 293 292 292 292 292 292 292 292 293 293 293 293 293 293 293 294 294 293 292 292 293 292 292 291 291 291 291 291 290 290 290 289 289 290 290 290 290 290 290 288 289 288 287 285 284 285 283 282 282 281 281 281 281 281 282
289 289 289 289 289 288 288 288 288 288 288 287 287 287 287 287 287 288 288 288 288 288 289 289 289 289 290 290 291 291 292 291 291 291 291 292 292 292 293 293 292 293 293 293 294 294 294 293 293 293 293 293 293 291 291 291 289 289 288 287 288 288 289 289 289 290 290 290 290 290 290 288 287 285 285 285 285 284 284 283 283 283 282 280 279
288 288 288 288 288 288 287 287 287 287 286 286 286 286 286 286 286 287 287 288 288 289 289 289 288 288 288 288 289 289 291 291 290 290 291 291 291 291 292 292 292 292 292 293 293 294 294 293 293 292 292 292 291 291 290 290 289 287 287 287 287 287 287 288 289 290 289 290 290 289 289 287 288 285 285 285 285 285 286 285 284 280 278 278 275
287 287 286 287 286 286 286 286 285 285 285 285 285 285 285 285 286 287 286 286 287 287 287 287 288 288 287 287 287 288 289 290 289 290 290 290 290 290 290 290 290 291 291 292 293 293 293 293 293 292 292 292 291 291 292 290 288 287 286 286 286 286 287 287 288 289 290 290 291 291 291 290 289 289 288 288 286 286 284 281 278 279 278 274 274
286 285 285 286 286 286 285 285 284 284 284 284 284 284 285 285 285 286 285 285 285 286 287 287 287 287 287 286 287 287 287 287 288 289 289 289 289 288 289 289 288 289 289 291 292 292 292 288 289 292 291 291 291 291 292 290 288 287 286 285 285 285 286 287 286 287 288 289 290 290 290 290 289 289 289 288 288 286 282 279 280 280 278 276 273
284 284 284 285 285 284 284 284 283 283 283 283 283 283 283 284 285 285 285 285 285 286 286 286 286 286 287 286 285 286 286 286 287 288 288 288 288 288 288 288 288 288 289 289 291 291 291 290 287 288 290 290 291 291 291 290 288 287 286 285 285 285 286 287 286 285 285 286 286 287 286 287 287 286 286 288 287 285 284 282 282 280 278 277 275
284 284 284 284 284 283 283 283 282 282 281 282 282 283 283 284 284 284 284 284 285 285 286 285 284 285 286 286 286 287 286 286 286 287 287 288 288 288 288 288 287 287 288 288 288 289 290 291 291 290 290 290 290 291 290 290 288 287 286 285 285 284 287 286 286 286 285 285 285 285 285 286 285 285 285 286 285 284 285 283 283 282 280 278 275
283 283 283 283 282 282 282 282 281 281 281 281 282 282 283 283 283 283 283 284 284 284 283 284 284 285 286 286 286 286 286 285 286 287 287 287 288 287 287 287 287 287 288 288 288 288 288 290 290 290 291 291 290 290 290 290 289 287 287 286 286 287 288 286 285 285 285 285 284 284 284 284 284 284 284 283 283 284 284 284 283 283 281 277 276
281 281 281 281 281 280 280 280 280 280 280 281 280 281 282 282 282 282 283 283 282 282 283 284 284 285 286 286 286 286 287 286 286 286 286 287 287 287 287 286 287 287 287 287 287 288 288 289 289 290 290 290 289 289 289 289 289 288 287 288 289 289 287 286 286 285 285 284 283 282 281 281 280 279 277 277 277 277 277 277 276 275 276 279 277
280 279 279 279 279 278 279 279 278 279 279 280 280 280 281 282 282 282 282 282 282 282 282 283 284 285 286 287 287 287 288 288 286 285 285 286 287 287 287 287 287 287 286 286 286 287 289 289 289 288 288 288 288 289 289 289 288 288 289 289 289 288 287 286 285 284 283 282 281 279 279 278 276 275 274 273 272 272 271 271 270 270 270 271 272
278 277 277 277 277 277 277 277 278 278 279 279 279 279 280 280 281 282 282 282 282 282 283 284 284 284 284 286 287 288 288 289 287 286 285 286 286 287 287 287 288 287 287 287 287 287 288 288 288 288 288 288 288 288 288 288 287 288 289 289 288 288 286 284 283 282 281 280 279 278 277 276 275 273 271 270 269 268 268 268 267 267 267 267 267
276 276 275 275 276 276 277 277 277 278 278 278 278 278 279 280 279 281 281 281 282 282 283 283 283 284 284 284 285 287 287 288 288 288 285 285 286 286 286 287 287 287 286 286 287 287 287 288 288 288 288 288 288 287 287 287 287 288 288 288 287 287 285 284 281 281 280 279 279 278 277 276 273 270 268 266 265 265 264 264 264 264 264 264 264
274 274 274 274 275 275 275 276 277 277 277 278 278 278 278 278 279 279 280 281 281 281 282 282 283 283 283 284 285 285 286 287 287 287 286 285 285 285 285 286 285 285 285 285 285 286 286 287 286 287 287 287 287 286 286 286 286 286 286 286 286 286 285 282 282 280 278 278 278 277 273 269 267 266 267 267 266 265 265 265 265 265 266 265 264
273 273 273 274 274 275 275 275 275 275 276 276 277 277 277 278 278 278 279 280 280 281 281 281 282 282 282 283 284 285 285 285 286 286 287 287 287 286 286 286 285 285 285 286 286 286 286 286 286 286 286 286 286 285 285 285 285 285 286 286 286 285 284 282 281 280 280 279 276 270 269 268 267 267 268 268 266 266 267 267 266 265 265 264 263
272 273 273 273 274 275 274 274 274 274 275 275 275 275 276 277 277 277 278 279 279 279 280 280 280 281 281 282 282 283 283 284 285 285 286 286 286 286 286 286 286 286 285 286 286 286 286 286 286 286 286 285 285 284 284 285 285 285 285 286 285 284 283 283 282 282 281 277 272 268 267 267 268 269 269 268 266 266 267 266 265 265 265 264 263
272 272 273 273 273 274 274 273 273 273 273 274 274 275 275 275 276 277 278 279 279 279 279 279 280 281 282 282 281 281 282 282 284 286 285 285 285 284 284 285 285 285 286 286 286 286 286 285 285 284 284 283 283 283 283 283 283 284 284 285 285 283 282 281 280 280 276 272 270 268 267 268 268 269 268 265 265 265 266 266 266 265 265 266 263
271 271 272 273 273 273 272 272 273 273 272 272 273 273 276 277 277 276 276 279 280 281 281 280 281 282 281 282 283 282 281 283 285 285 285 285 286 286 286 286 287 286 286 287 286 284 284 283 283 283 283 283 282 282 282 282 282 283 284 284 284 282 281 281 281 277 273 272 269 268 268 268 267 267 265 264 264 265 266 266 265 266 266 264 262
269 271 271 271 271 271 271 271 271 272 272 272 272 272 272 274 277 278 278 278 279 279 281 281 282 282 282 281 282 284 284 285 285 285 285 286 286 286 286 287 287 287 287 286 284 284 283 282 283 283 283 283 282 282 282 282 282 282 282 282 282 281 281 280 279 274 273 272 271 270 269 268 267 265 264 264 264 265 265 265 266 266 266 264 263
268 269 269 269 269 269 270 270 270 270 270 271 271 271 271 271 272 276 277 278 279 279 280 280 281 282 282 282 282 282 283 284 285 285 285 286 286 286 286 286 287 287 287 287 284 283 283 282 282 282 282 282 282 282 282 282 282 283 282 280 280 280 280 279 275 273 272 272 271 269 269 267 266 265 264 264 264 264 264 264 265 265 265 265 264
266 266 266 267 268 268 268 269 269 269 269 269 269 270 270 270 270 270 273 276 277 278 279 280 280 281 282 283 283 283 283 284 284 285 285 285 285 285 285 286 287 287 287 284 283 282 283 283 282 282 282 282 282 282 282 282 282 282 282 280 279 279 279 276 274 273 273 271 270 270 269 268 266 266 265 264 264 263 263 263 264 264 264 263 262
264 265 265 266 266 266 267 267 267 268 268 268 268 268 269 269 269 270 270 271 273 276 278 279 280 280 281 282 282 283 283 283 283 283 284 284 284 285 285 285 287 287 286 283 283 282 283 282 283 282 282 282 282 282 282 282 282 281 281 280 279 277 275 274 274 273 273 271 271 270 270 269 268 265 263 264 264 264 263 263 263 263 263 263 261
262 263 264 264 265 265 265 266 266 266 266 266 267 267 268 268 269 269 269 270 270 271 272 274 277 280 279 280 281 282 282 282 283 283 283 284 284 285 286 284 283 283 284 284 283 283 282 282 282 282 282 282 282 282 282 282 280 279 278 277 275 274 273 274 274 273 272 271 271 270 269 269 267 265 264 264 263 263 263 263 263 264 263 262 261
261 262 262 263 263 263 264 264 264 264 265 265 266 267 268 268 268 269 269 270 270 271 272 273 275 277 279 280 281 281 281 282 283 283 283 284 284 285 282 282 282 282 282 283 283 283 283 283 282 282 282 282 282 282 282 280 278 278 278 275 273 273 273 273 272 272 271 271 270 269 268 267 266 265 265 265 264 263 263 263 263 264 263 262 261
261 261 261 262 262 262 262 263 263 264 265 265 265 265 266 267 268 268 269 269 270 270 271 272 273 274 276 278 279 280 281 281 282 282 282 283 284 284 282 282 281 282 282 282 282 282 282 282 283 283 282 282 282 281 280 279 278 278 277 276 274 274 273 273 272 271 271 270 269 268 267 267 267 266 265 264 264 263 263 263 263 262 262 261 260
260 261 261 261 261 261 262 262 262 263 263 264 264 265 265 266 266 267 268 268 269 269 269 270 271 271 272 273 278 278 279 280 280 280 281 282 282 282 282 282 282 281 281 282 282 282 282 283 283 282 282 282 280 280 279 279 278 278 276 274 273 274 273 272 271 270 270 269 268 268 267 267 266 266 265 264 263 262 262 262 262 262 261 260 260
261 261 261 261 262 261 261 262 262 262 262 263 263 264 264 265 265 266 266 266 266 267 268 268 269 270 271 274 275 277 277 275 275 275 277 278 280 281 281 281 281 281 281 282 282 282 282 282 282 282 281 281 279 279 279 278 278 277 275 273 273 273 271 270 270 270 269 268 268 268 268 266 265 266 265 264 263 262 262 261 261 261 260 260 261
260 260 261 261 261 262 262 262 262 262 262 262 262 263 263 263 263 263 264 264 264 265 266 267 268 270 272 274 274 275 273 273 273 274 275 276 278 280 280 280 280 280 281 281 281 282 281 282 281 280 279 279 279 278 278 278 276 274 273 272 271 270 270 270 269 268 268 269 267 266 265 265 265 265 265 264 263 262 261 261 261 260 261 261 261
260 260 260 261 261 261 262 262 262 262 262 262 262 262 262 262 263 263 263 264 264 265 266 266 267 269 271 273 274 274 273 273 273 274 275 276 278 279 279 280 280 280 280 281 281 281 281 281 280 279 278 278 278 277 277 276 274 272 272 271 271 271 270 270 269 268 267 267 266 265 265 265 265 265 264 263 263 262 261 261 261 261 261 261 260
259 260 260 261 261 261 261 261 262 262 262 262 262 262 262 262 263 263 263 264 264 264 265 266 267 269 271 272 272 273 272 272 273 274 275 277 278 278 279 279 280 280 281 281 281 281 280 279 278 278 278 277 276 276 275 274 272 272 271 270 270 269 268 269 269 268 268 267 266 265 265 265 264 265 264 263 262 261 261 261 261 261 261 260 259
259 260 260 261 261 261 261 261 262 261 261 262 262 263 263 263 263 263 263 264 264 264 265 265 267 268 269 271 271 272 272 272 272 274 276 276 277 277 278 279 280 280 280 280 281 281 280 278 277 277 276 276 275 274 274 273 272 271 271 270 270 268 268 267 267 267 266 266 265 264 264 264 264 263 262 261 261 261 261 260 260 260 259 259 258
260 260 260 261 261 261 261 261 261 262 262 262 262 263 263 263 263 263 264 264 264 265 265 266 267 267 268 269 270 271 271 272 273 274 275 275 275 276 276 276 275 275 276 275 275 276 277 277 275 274 273 274 274 273 273 272 272 271 271 270 268 268 268 267 266 266 266 265 264 264 263 263 262 262 260 260 260 260 260 259 259 259 259 259 258
260 260 260 260 260 260 260 261 261 261 262 262 262 262 263 262 262 262 263 263 264 264 265 266 266 267 267 268 269 270 271 272 273 273 273 274 273 272 271 269 269 269 270 270 271 273 273 272 270 269 269 269 271 271 271 271 272 272 271 270 269 268 269 268 268 267 266 264 263 263 262 262 262 261 260 260 260 260 259 259 259 258 258 258 258
260 259 259 259 260 260 260 260 261 261 261 261 261 261 261 262 262 262 262 262 263 263 264 265 266 267 268 268 270 270 271 272 272 271 270 270 269 268 266 265 265 265 266 267 268 268 269 270 269 269 268 267 268 269 269 270 271 271 271 271 271 271 271 270 268 267 264 263 262 262 262 262 262 261 260 260 260 260 259 259 259 258 258 258 258
259 259 259 259 259 260 260 260 260 260 260 260 260 260 261 261 261 262 262 262 262 263 263 264 265 266 267 267 268 268 268 268 268 267 266 266 265 264 264 264 264 264 264 265 265 266 266 266 266 266 266 265 266 265 266 266 266 266 267 268 268 268 268 267 267 267 265 264 264 263 262 262 261 260 259 260 260 259 258 258 258 257 258 258 257
258 259 259 259 259 259 259 260 259 260 260 260 260 260 260 261 261 261 261 261 261 262 263 263 264 265 265 265 265 266 266 265 265 264 264 263 263 263 262 262 262 263 263 262 262 262 263 263 264 264 263 263 264 264 264 264 264 265 265 265 266 265 265 264 265 265 264 264 264 263 263 262 261 260 260 260 260 259 258 258 257 257 257 257 257
258 258 258 259 259 259 259 259 259 259 259 259 259 259 260 260 260 260 260 260 261 261 262 262 262 263 263 264 264 264 264 264 263 263 262 262 262 262 261 261 261 262 261 261 261 261 261 262 262 263 263 263 263 262 262 262 261 261 262 262 263 262 262 263 264 264 263 263 263 263 262 261 260 259 259 259 259 258 258 258 257 256 256 256 256
257 258 258 258 258 259 259 259 259 259 259 259 259 259 259 259 259 260 260 260 260 260 260 261 261 261 262 262 262 262 262 262 261 261 261 261 261 261 260 260 260 260 260 260 260 260 260 261 261 261 261 262 261 261 260 260 260 261 261 263 263 263 263 263 262 261 263 263 263 263 262 261 260 259 259 259 258 258 257 256 256 255 255 255 255
257 257 257 258 258 258 258 258 258 258 258 258 258 258 258 258 259 259 259 259 259 259 260 260 260 260 260 261 261 261 261 261 261 261 261 261 261 260 260 259 259 259 260 260 260 260 261 261 261 261 261 260 260 260 260 261 261 262 262 263 263 262 262 261 261 261 262 262 262 262 261 260 259 258 258 258 258 257 256 255 255 255 255 254 254
Wind_Speed
6 5 4 5 6 6 6 5 5 3 3 3 3 3 4 4 4 5 5 5 5 7 7 7 8 8 9 9 9 9 9 9 8 8 9 11 11 10 10 10 12 12 11 13 10 10 11 11 11 11 9 9 9 8 10 12 10 10 10 11 11 10 11 12 16 19 11 3 3 3 3 4 4 6 6 5 5 6 7 4 6 7 8 8 9
6 6 5 4 6 5 5 5 5 5 5 4 4 4 4 4 4 4 5 5 4 6 7 7 7 8 8 9 9 9 10 10 9 8 9 11 11 9 10 10 11 12 11 14 11 9 10 11 11 10 9 11 11 10 9 7 7 8 9 9 10 11 10 12 15 14 20 4 4 2 3 5 5 5 7 6 6 5 6 5 5 7 7 8 8
5 5 5 6 7 6 7 7 7 7 6 6 6 6 5 5 5 5 5 5 4 4 5 6 7 7 8 8 9 9 9 10 9 9 10 10 10 9 9 10 10 12 12 12 10 9 10 10 11 9 8 10 11 10 9 10 9 11 12 10 12 11 10 12 12 15 17 16 7 6 5 5 7 4 6 5 5 5 6 6 6 6 6 8 6
5 5 5 6 7 6 6 5 5 5 5 5 6 6 6 5 5 5 5 5 6 5 5 6 6 7 8 8 9 9 9 9 10 10 10 10 10 11 11 11 11 11 12 13 10 9 11 11 11 10 10 12 11 10 9 8 8 8 10 9 10 12 11 11 13 13 14 15 7 7 4 4 4 3 4 4 5 5 5 3 4 5 3 5 5
4 4 4 5 5 4 4 3 4 5 5 5 6 6 5 5 4 5 5 5 5 5 5 4 6 7 7 8 9 9 9 9 10 10 10 9 10 10 11 11 10 11 11 11 10 10 11 12 11 10 10 12 11 11 10 11 10 9 10 9 10 11 10 10 11 11 13 15 10 2 3 2 1 3 6 7 5 4 4 4 4 4 4 4 3
5 5 5 5 5 6 6 6 6 6 6 6 6 5 5 5 5 4 5 6 5 5 5 4 4 6 7 8 8 9 9 9 9 9 9 9 9 10 9 10 9 10 10 10 10 10 11 12 11 10 10 12 12 10 10 12 10 11 11 10 10 9 11 11 10 11 12 13 12 7 5 6 3 5 6 6 7 7 5 4 4 3 7 6 5
6 6 6 6 6 7 7 7 6 6 6 6 5 5 4 4 4 5 4 4 5 5 5 5 5 5 6 7 8 9 9 9 9 9 9 10 10 9 9 9 10 10 10 11 11 11 11 11 11 11 12 12 12 12 10 11 10 11 11 12 12 11 12 11 10 11 11 12 11 10 6 4 5 5 6 4 3 5 8 9 7 7 6 8 7
6 6 6 6 7 7 6 6 6 6 6 5 5 5 5 5 5 5 4 5 5 5 5 6 5 5 5 6 7 8 8 9 9 9 9 10 9 8 8 9 10 10 10 10 10 11 11 12 11 11 12 11 11 11 11 11 9 11 9 9 10 10 11 10 9 10 10 11 11 9 6 6 4 3 5 6 6 5 7 9 10 9 7 6 6
6 6 6 7 7 6 6 6 5 6 7 7 7 8 7 7 7 6 5 5 4 5 5 5 6 6 5 5 6 7 8 8 7 7 8 9 9 10 9 10 11 10 10 10 10 11 11 11 12 12 13 14 16 15 13 11 9 9 9 8 10 10 10 8 9 9 9 9 10 6 5 6 6 7 9 11 11 10 10 6 7 9 9 7 5
6 7 7 7 7 7 6 6 6 6 7 7 8 8 7 8 7 7 7 6 6 6 6 5 5 6 6 6 5 5 6 7 7 9 10 9 10 10 10 10 10 10 9 10 11 11 11 11 12 15 16 16 16 17 16 16 16 13 11 8 8 9 10 10 10 9 9 10 10 8 8 9 9 10 10 8 6 7 9 9 9 9 8 6 5
4 5 5 5 6 6 6 6 6 7 7 7 8 8 8 8 8 8 8 8 8 7 7 8 7 6 6 7 7 6 5 5 8 11 14 14 12 11 11 10 9 9 9 11 12 11 10 11 11 11 13 13 14 17 17 18 17 18 20 19 16 12 10 11 11 9 9 10 9 8 10 10 9 9 9 7 9 10 9 10 10 11 12 13 12
5 5 5 5 6 7 6 7 7 7 7 8 8 8 8 6 6 8 8 7 7 8 8 7 8 7 6 7 7 7 7 9 12 12 14 15 12 11 10 11 10 9 10 10 10 10 11 11 10 9 9 11 11 12 14 17 18 19 19 19 19 20 19 14 11 10 9 10 10 11 9 11 8 9 10 9 9 9 10 9 10 12 12 10 8
4 5 5 5 6 6 7 7 7 6 7 7 7 6 5 5 5 5 6 6 6 7 8 8 8 8 7 8 8 8 8 10 12 14 14 15 15 13 10 10 10 10 10 11 11 11 11 10 10 9 8 12 11 11 11 12 14 17 18 18 18 19 17 21 20 15 9 10 12 11 11 8 9 9 11 12 11 9 10 11 10 10 10 11 8
3 4 4 5 5 6 6 5 7 7 7 5 7 6 5 6 6 6 5 5 6 7 5 7 8 8 8 9 9 8 9 11 13 14 15 15 15 13 11 12 12 13 13 12 11 12 11 10 10 10 9 9 9 10 11 11 11 10 9 10 10 12 15 19 19 21 18 13 11 13 10 8 11 9 11 11 14 12 12 14 11 11 12 10 7
4 4 5 5 5 6 7 7 7 7 7 5 6 5 6 6 6 5 5 5 6 5 6 6 5 5 7 7 9 9 8 12 14 14 14 15 15 14 12 11 12 12 12 12 13 13 12 10 11 11 11 10 9 10 11 11 10 10 9 9 9 9 10 10 11 12 12 13 13 13 10 8 8 7 11 12 16 16 14 11 12 10 8 9 9
4 5 5 5 6 6 6 7 7 7 8 6 6 7 6 6 7 7 6 6 5 5 5 5 6 7 6 7 8 10 8 10 13 14 13 14 15 10 10 11 12 12 13 13 12 11 11 11 10 10 11 11 12 14 14 11 10 11 11 10 10 9 9 9 12 13 12 11 11 11 8 6 8 10 13 13 10 7 7 6 8 9 10 9 7
6 6 6 6 6 7 7 7 7 7 7 8 8 7 8 8 7 6 7 6 6 6 6 6 5 7 8 6 7 10 10 9 11 13 13 15 13 8 9 10 11 12 13 13 12 12 11 11 11 11 11 12 12 14 16 15 11 12 12 12 11 9 10 7 12 17 17 17 17 17 14 13 16 18 19 19 13 11 9 11 9 10 12 9 6
6 7 7 7 7 7 7 7 7 8 8 8 9 8 8 7 6 6 7 9 9 8 7 8 6 4 7 9 7 8 11 10 11 12 14 14 12 10 9 9 11 11 12 12 11 11 12 13 13 12 13 13 13 15 17 13 11 11 11 12 13 10 9 7 6 8 13 16 16 14 14 14 17 19 21 22 21 16 14 13 12 8 8 9 9
8 8 8 8 8 6 7 7 8 8 8 9 8 9 9 9 8 7 7 8 9 7 7 8 9 7 6 9 12 10 10 14 12 11 14 13 11 7 8 9 11 11 10 12 11 10 11 10 13 14 13 15 18 17 17 12 10 10 10 10 12 11 10 7 8 7 6 7 7 7 7 11 11 10 14 25 23 17 12 12 12 13 11 9 10
8 8 8 8 7 8 8 8 8 9 10 9 9 8 8 8 7 8 8 7 8 9 8 8 11 10 8 9 10 8 9 10 11 10 14 14 13 9 7 9 11 11 10 11 11 10 9 10 11 14 18 19 20 20 19 18 12 10 8 8 11 14 10 6 8 7 7 7 5 7 8 7 8 8 10 13 13 12 10 11 12 11 11 13 13
9 9 9 9 8 8 8 8 10 9 8 9 9 8 7 8 9 7 9 8 8 9 10 9 10 11 9 8 8 10 9 11 14 12 12 14 15 12 8 9 10 10 11 11 11 11 10 9 9 11 14 16 17 18 18 19 17 11 10 9 11 12 6 7 7 9 7 7 6 6 7 7 7 8 8 9 8 8 6 8 8 8 11 12 12
8 9 9 8 9 9 9 8 8 8 8 8 9 10 8 8 8 7 8 8 11 12 11 8 9 10 10 12 9 10 10 13 11 14 12 14 15 15 9 10 10 9 12 12 11 11 11 11 10 10 11 13 15 15 18 18 20 12 12 16 18 18 9 6 5 6 6 7 7 7 7 7 8 7 7 7 7 8 8 9 8 9 5 6 11
8 8 9 9 9 9 8 9 9 8 8 9 9 10 9 8 10 8 8 9 10 12 13 9 8 9 10 10 8 10 9 10 13 11 13 13 15 16 18 14 15 11 11 13 13 12 11 12 11 12 12 13 15 16 17 19 17 13 18 19 21 20 11 6 6 7 7 7 8 8 8 8 7 8 7 7 6 9 7 9 9 8 8 9 8
8 8 8 8 9 8 9 9 9 8 8 9 9 9 10 9 9 8 7 8 8 9 9 8 8 10 10 11 10 8 6 6 9 12 11 13 14 17 19 19 18 12 11 12 12 12 11 11 10 13 14 14 16 16 17 17 13 17 20 20 18 15 8 7 8 8 7 7 8 7 7 6 8 8 7 7 8 10 9 10 9 9 8 8 8
8 8 8 8 8 9 9 9 9 8 8 9 9 9 10 9 9 8 7 8 8 9 9 9 9 10 10 11 11 11 9 8 7 10 12 13 15 17 18 20 19 18 14 12 13 12 14 17 18 18 17 17 18 17 16 17 20 21 20 18 15 8 9 9 8 8 9 8 9 9 7 5 6 7 9 10 10 9 9 10 10 9 9 14 13
9 9 9 8 9 10 11 10 8 9 10 8 8 8 9 10 9 10 9 8 8 9 10 10 10 10 11 11 12 12 12 11 10 8 7 8 10 14 17 17 17 17 17 15 18 20 21 21 23 23 20 17 13 9 8 9 13 17 18 16 10 8 10 8 9 9 6 8 9 10 7 7 7 8 10 11 8 7 8 9 9 6 6 8 11
9 9 9 9 9 9 10 9 10 10 8 8 8 8 8 8 9 10 9 9 9 9 10 10 11 11 11 11 12 12 12 11 10 8 5 5 6 8 10 11 13 14 12 11 12 12 14 13 11 14 14 16 16 13 12 11 9 10 10 10 9 9 9 9 10 9 8 9 7 6 6 7 8 9 10 11 9 5 8 11 9 7 8 8 10
8 9 10 9 8 9 9 12 11 10 10 9 10 10 8 8 9 10 10 9 9 11 11 11 12 12 11 12 12 12 13 12 11 8 6 7 9 10 11 12 12 11 12 11 11 11 12 13 14 11 11 10 9 8 8 8 9 9 9 8 7 8 9 9 10 9 7 8 9 8 8 7 8 9 9 10 6 6 3 5 10 8 8 9 8
8 9 9 8 8 8 9 9 9 10 11 10 9 9 10 10 11 13 12 10 10 11 12 14 14 12 11 12 14 15 14 14 12 7 9 12 15 14 14 13 12 13 15 19 14 14 13 13 14 12 11 10 9 9 8 8 8 8 8 8 8 8 9 9 10 10 10 12 13 14 10 8 9 8 11 7 6 5 3 7 7 11 6 6 7
8 8 7 8 7 9 9 9 9 9 10 11 12 13 13 16 14 13 15 17 19 21 20 17 16 15 15 16 14 16 15 16 22 27 28 29 29 25 22 22 22 19 20 25 19 17 16 14 13 13 11 10 10 10 9 9 8 8 8 9 9 9 9 9 9 9 9 12 11 10 9 9 10 11 9 8 6 4 5 10 7 7 8 7 8
7 7 7 7 9 10 10 9 9 9 10 11 11 13 15 15 16 20 22 25 27 27 25 27 29 28 22 19 20 30 31 33 33 32 32 31 28 26 24 23 24 24 24 17 15 14 13 13 13 13 11 11 11 11 9 8 8 8 7 7 9 10 9 8 8 10 9 9 9 8 9 11 12 9 9 8 8 7 7 6 7 5 5 7 8
6 7 8 9 10 9 9 10 10 10 11 10 11 12 13 15 18 18 18 19 22 26 28 28 27 27 29 27 23 19 25 30 29 27 25 25 26 27 29 28 26 26 25 23 17 15 13 13 13 12 10 11 11 10 9 9 8 8 7 6 8 8 9 10 9 11 10 12 10 8 8 7 8 8 7 7 8 8 7 7 6 4 4 3 5
8 8 8 9 9 10 10 9 10 10 11 11 12 11 12 13 15 18 19 19 20 22 25 28 29 27 26 26 28 26 26 28 32 31 28 28 28 29 30 29 29 28 26 18 13 14 13 13 13 13 10 10 10 9 9 9 9 9 9 8 8 8 7 8 11 10 11 9 12 10 8 9 9 10 9 6 8 9 7 7 5 4 5 6 5
9 7 8 9 10 9 9 9 10 10 10 10 11 12 12 12 14 15 17 19 20 17 15 18 20 22 25 26 25 24 24 26 29 31 31 30 29 30 28 22 26 27 23 16 13 13 13 13 12 13 11 10 10 9 8 8 7 6 6 6 6 5 6 9 11 11 8 9 11 11 10 11 11 10 8 7 6 8 8 6 7 7 7 7 8
7 8 12 10 8 9 9 9 10 10 11 11 11 11 12 13 13 14 15 16 17 19 19 16 15 17 17 19 23 26 26 27 29 29 31 29 28 28 27 19 16 12 11 11 13 13 12 13 12 11 9 10 8 8 8 7 5 5 6 5 6 6 7 10 10 10 10 10 11 12 11 13 13 11 8 9 8 8 7 7 7 7 7 7 7
7 7 7 8 8 8 8 9 9 10 11 11 12 13 13 13 14 13 14 15 16 18 18 17 17 18 26 25 27 28 28 26 25 26 27 28 28 26 17 13 13 13 12 10 11 11 11 11 11 10 10 9 7 7 7 5 6 6 5 7 8 9 9 8 9 10 10 11 11 12 10 9 9 10 6 9 9 8 8 7 7 6 5 7 7
7 7 7 7 8 9 9 10 10 11 12 13 13 13 13 13 13 14 14 15 16 17 17 19 18 19 18 15 17 22 27 26 25 25 28 28 29 20 14 14 13 13 12 11 11 11 11 11 11 11 9 8 8 7 6 5 6 7 7 9 7 10 11 10 11 10 12 11 11 12 12 11 13 13 10 9 7 6 6 6 5 5 4 7 8
7 7 7 9 10 10 10 10 10 13 12 11 11 11 13 13 14 14 15 15 17 17 18 18 18 18 18 17 19 16 17 24 27 22 19 19 13 11 12 12 12 13 13 11 11 11 12 10 10 8 8 8 6 6 6 7 8 7 8 7 7 8 11 11 11 11 11 11 10 8 8 10 9 10 10 9 9 8 7 5 7 8 6 7 5
6 9 12 14 12 10 10 10 11 11 11 11 11 12 13 13 14 14 14 14 15 16 17 16 17 17 17 15 15 15 18 17 17 16 16 14 13 11 11 11 12 12 12 12 10 10 10 10 8 8 6 7 6 5 7 7 7 8 8 8 8 8 9 7 9 9 9 10 8 9 12 8 7 7 9 8 8 8 8 7 6 6 8 8 6
7 7 8 12 9 9 9 10 11 11 11 11 11 11 12 13 14 14 15 15 16 16 16 16 17 16 16 15 14 14 16 18 16 16 16 16 15 12 11 11 12 12 12 11 10 10 10 9 7 6 7 6 6 7 7 8 8 8 8 9 9 9 8 10 11 11 11 11 8 7 8 9 8 8 7 7 8 8 9 8 7 6 6 7 7
6 8 8 9 10 9 9 10 9 10 11 12 13 13 13 14 14 14 14 15 16 16 16 17 17 16 16 19 26 26 18 18 18 16 16 16 14 13 12 11 11 12 11 10 9 8 8 8 7 8 6 5 7 7 7 8 8 7 8 8 8 9 8 9 10 9 9 11 9 7 7 8 8 10 9 7 6 7 6 6 6 5 5 6 7
7 7 8 8 8 8 9 10 10 11 11 12 11 12 13 14 14 14 15 16 16 17 17 17 17 16 19 29 28 31 21 17 17 17 16 14 14 13 12 11 11 10 11 10 9 9 8 7 7 7 6 6 6 6 6 7 7 7 7 6 7 8 8 8 9 9 11 11 12 12 12 12 8 7 8 8 7 7 7 6 5 6 6 6 6
7 7 7 8 8 8 9 10 10 10 11 11 11 12 14 15 15 15 16 16 16 16 17 17 17 17 18 23 25 28 18 15 15 15 14 13 12 12 11 11 10 9 9 9 9 8 7 6 6 5 5 5 6 8 9 8 9 8 8 8 8 7 8 8 9 8 8 10 11 11 13 12 8 7 7 6 7 7 6 6 5 5 5 6 7
6 6 7 7 8 8 8 9 9 10 10 13 14 13 13 13 14 14 15 16 16 16 16 17 17 18 17 18 19 17 15 14 13 13 13 12 12 12 11 9 9 9 8 6 5 3 3 4 3 2 2 2 3 3 4 4 5 7 9 8 8 8 9 10 10 11 11 9 10 12 8 8 7 7 7 6 7 8 7 6 6 6 6 6 7
6 6 6 7 7 7 8 8 9 10 11 11 10 11 12 12 13 14 15 15 16 16 16 16 17 17 18 17 16 16 16 14 13 12 12 11 9 9 7 7 7 6 6 5 4 4 1 2 3 4 5 4 4 4 4 4 3 4 5 8 10 11 11 11 11 11 11 12 11 10 9 9 8 7 7 7 7 7 7 7 6 7 6 6 7
5 6 6 6 7 7 8 8 9 9 9 10 11 12 12 12 12 13 14 15 15 16 16 16 16 16 16 16 15 14 14 13 13 12 10 9 9 8 5 5 6 5 5 5 5 5 4 2 2 4 5 4 5 5 4 4 3 3 4 4 5 6 6 7 7 10 11 9 10 9 9 8 7 7 9 8 7 6 6 6 6 6 6 7 7
5 5 5 6 6 7 7 8 8 9 9 9 10 11 12 12 13 13 14 15 16 16 15 15 16 15 15 15 16 15 14 13 11 9 8 8 8 7 6 6 5 5 5 5 5 4 4 4 4 5 5 5 5 5 5 4 3 3 4 4 5 7 6 6 8 10 12 9 11 11 8 8 8 8 8 7 6 6 6 7 7 7 6 6 7
5 5 5 5 6 6 6 6 8 9 9 10 11 11 11 12 13 13 13 14 14 14 14 15 15 15 14 14 13 12 11 10 9 8 8 7 6 6 6 6 5 5 4 5 5 5 5 4 4 5 6 5 5 5 5 4 4 5 4 4 5 6 9 10 9 10 10 7 8 12 14 9 7 7 7 7 7 7 7 7 6 5 5 6 4
5 5 5 5 5 5 6 6 7 7 8 9 9 10 10 11 11 12 12 13 13 13 13 14 14 14 13 13 12 11 10 9 9 9 7 7 7 6 6 6 6 5 5 5 5 6 5 5 5 5 6 6 5 5 6 6 5 5 5 5 8 14 13 12 11 10 11 8 7 7 7 7 8 7 7 6 7 6 6 6 6 6 6 5 5
5 5 5 5 5 5 6 6 6 7 8 8 9 9 10 10 11 11 11 12 12 13 13 13 13 13 13 13 13 12 10 10 9 9 8 7 7 6 6 6 6 6 6 6 5 5 5 5 6 6 6 6 5 5 5 5 5 5 5 8 15 16 15 16 14 15 11 6 8 7 7 7 7 7 7 6 6 7 7 7 6 5 6 6 6
5 5 5 5 5 5 5 5 6 6 7 8 8 8 9 10 10 10 11 11 12 12 12 13 13 13 13 12 12 11 11 10 9 9 9 8 8 7 7 6 6 6 6 6 5 5 5 5 6 6 6 6 6 6 6 6 5 6 11 16 17 17 15 12 8 10 12 10 7 7 7 8 8 8 7 6 6 7 7 8 7 7 6 6 5
Wind_Direction
30 29 21 25 24 26 14 10 4 351 342 339 318 320 320 311 306 311 312 299 304 298 294 292 289 284 280 275 274 274 274 270 265 262 259 257 255 253 254 249 252 253 251 254 245 246 248 249 246 242 241 242 240 234 228 235 230 231 233 236 240 233 234 244 254 267 266 130 222 191 163 162 207 198 202 193 187 196 202 179 179 192 197 205 213
25 15 21 22 33 25 17 14 5 1 351 353 346 345 334 323 316 312 301 302 306 298 293 295 293 291 289 286 283 279 276 272 268 260 256 258 260 256 259 256 255 258 254 256 253 251 254 255 254 254 249 250 249 245 244 246 243 244 239 234 242 240 223 236 250 256 271 211 239 152 206 183 233 172 195 179 191 163 192 178 183 188 195 202 211
25 26 24 32 30 29 23 19 6 1 356 359 356 348 341 332 335 323 317 314 308 297 300 299 296 291 287 284 284 282 280 279 276 266 263 261 261 260 254 253 252 254 255 253 255 254 255 254 257 252 250 250 247 246 241 240 233 237 243 235 243 242 233 229 242 254 261 268 231 217 190 192 211 187 188 190 170 175 180 186 181 184 194 197 197
29 32 30 39 33 31 30 12 8 3 1 3 352 349 338 335 334 325 322 316 310 303 296 298 297 290 285 283 280 279 279 275 274 269 268 266 267 266 263 257 255 254 253 255 253 248 247 251 249 243 244 248 249 246 243 241 242 246 249 247 243 247 240 235 235 246 260 267 247 191 174 179 212 136 160 128 152 177 179 132 128 147 144 174 154
44 55 45 53 46 41 29 19 14 13 9 1 355 345 342 333 331 324 318 309 308 309 302 297 296 290 286 286 286 283 278 274 272 271 267 264 264 266 267 265 261 259 257 256 257 250 251 248 252 245 243 246 250 242 240 235 232 236 243 243 243 245 244 240 241 241 251 256 263 166 170 175 119 154 155 159 155 138 124 150 152 130 131 132 124
33 44 37 39 35 28 23 17 13 9 3 1 354 347 339 339 333 325 319 312 308 300 295 294 286 289 290 287 285 284 283 281 274 271 271 270 264 261 260 259 260 261 262 260 257 253 251 254 252 246 243 244 250 247 242 242 239 239 245 248 246 246 245 244 241 244 245 253 258 253 174 184 172 195 177 162 154 154 145 121 113 122 143 147 155
27 35 29 34 29 24 18 14 5 3 360 351 345 341 341 334 331 329 324 307 306 310 307 297 291 286 287 292 287 286 286 282 281 280 279 277 273 266 265 263 261 259 257 257 256 255 253 253 254 248 246 246 249 250 248 247 244 243 240 246 246 245 248 244 242 242 244 250 252 248 227 203 175 180 184 154 151 160 150 152 164 172 171 160 149
26 27 24 27 27 16 11 2 358 355 346 342 342 345 343 346 342 332 325 323 326 318 316 314 306 294 290 293 297 296 290 288 286 285 283 281 282 271 268 268 266 266 263 257 256 254 252 252 251 249 246 247 247 250 245 249 245 249 245 246 252 247 250 249 243 242 244 245 247 247 213 204 161 114 138 150 156 179 183 172 166 161 159 155 153
22 22 23 26 17 6 359 355 353 351 352 351 353 352 347 344 339 333 333 330 321 321 311 309 308 303 291 284 290 292 288 284 284 286 289 285 281 281 273 267 266 264 264 263 258 255 253 252 251 250 247 247 245 246 246 245 248 258 255 239 248 245 249 248 244 242 244 245 249 238 217 208 195 162 177 187 192 185 173 159 159 161 155 147 157
18 17 22 15 3 359 352 355 349 349 355 353 352 345 341 340 337 335 336 335 329 326 322 310 301 303 307 305 293 290 288 285 270 264 264 275 283 280 278 272 265 265 263 268 268 258 257 254 254 250 250 250 249 249 249 250 249 250 261 253 243 244 243 245 243 239 239 242 240 231 222 219 204 194 198 194 150 124 160 164 153 157 149 147 145
22 22 18 4 357 352 354 353 348 354 352 347 344 343 340 337 332 330 331 331 328 331 325 321 323 318 312 308 305 297 284 274 273 280 285 282 282 284 281 277 269 261 263 268 271 269 263 258 258 255 251 252 252 250 248 246 245 248 249 249 246 242 244 243 245 237 237 241 241 229 228 228 211 197 191 159 177 169 168 171 164 162 170 165 177
21 18 10 0 359 357 353 349 349 348 350 348 342 337 328 326 328 327 324 325 327 322 315 314 312 309 305 300 292 291 288 288 288 288 285 284 280 280 281 279 271 259 260 260 260 265 267 267 260 255 249 245 247 248 246 245 246 249 251 251 249 245 241 240 246 246 235 241 242 234 226 227 208 187 186 173 173 169 180 171 169 170 169 185 174
21 16 6 1 359 352 349 348 343 346 347 339 331 323 320 318 319 323 322 319 312 311 311 311 306 307 301 299 294 290 290 291 292 288 285 283 281 279 281 277 273 264 257 257 259 259 263 265 268 255 252 243 241 246 250 252 249 248 251 252 253 251 248 245 241 242 244 241 242 240 227 218 211 203 180 181 168 161 165 179 180 180 185 180 168
21 13 3 2 355 349 349 341 340 338 335 332 331 325 324 322 320 312 302 302 302 298 295 292 294 298 298 298 294 289 284 291 290 287 283 280 280 280 278 278 273 269 264 260 259 260 257 260 264 264 254 243 239 240 245 249 256 258 254 251 251 253 250 248 246 243 240 240 240 243 234 202 216 194 183 167 172 174 177 187 173 178 185 184 144
20 12 360 1 355 352 347 340 336 332 330 330 324 318 314 309 305 306 305 303 300 301 306 301 293 290 288 289 289 283 274 279 282 283 279 278 283 281 281 278 274 271 266 261 259 259 259 257 256 260 262 252 242 232 243 248 252 254 255 253 250 250 247 242 238 237 237 236 238 243 242 214 209 169 173 179 187 188 186 172 164 166 131 93 95
19 7 358 359 351 347 342 335 331 328 326 323 317 315 315 314 313 316 310 303 295 291 287 290 287 294 288 285 287 283 277 275 282 282 281 283 288 286 282 279 277 275 273 270 265 262 260 256 254 256 259 257 251 240 240 248 253 256 255 256 256 251 246 237 234 237 235 234 235 236 238 201 180 172 178 183 182 167 156 126 133 131 129 143 135
9 358 355 350 347 344 341 336 329 327 327 324 323 323 324 322 319 325 316 306 302 301 296 292 290 294 298 285 283 286 287 281 284 284 282 286 290 285 283 280 277 277 275 277 272 270 262 255 258 259 259 260 253 247 249 245 251 252 253 256 257 254 256 239 233 238 239 239 239 238 235 213 188 183 181 176 170 157 146 152 158 155 155 146 139
1 354 348 345 340 340 338 338 330 327 327 327 324 321 317 309 310 320 315 314 310 305 304 301 290 281 299 299 291 288 292 292 288 281 282 281 282 286 283 282 280 278 280 277 275 271 268 254 250 257 260 262 258 251 252 251 252 253 251 254 258 253 253 243 238 241 239 239 237 229 218 204 188 181 180 179 170 158 161 166 164 142 149 147 141
356 349 342 340 337 337 336 335 333 328 324 322 321 317 318 315 310 313 310 306 296 299 306 305 305 296 292 297 297 287 281 291 290 276 278 278 282 282 281 281 282 278 280 283 279 274 270 260 242 240 249 260 260 259 258 251 248 250 249 249 253 252 253 240 234 235 227 219 219 206 202 191 185 177 181 178 170 169 173 161 154 160 159 156 144
344 341 339 337 336 337 336 332 329 329 321 314 315 309 308 309 310 313 308 306 305 308 308 305 304 295 293 292 290 282 283 284 288 270 276 275 273 275 280 278 276 279 279 279 284 280 273 267 256 239 250 257 262 262 260 253 246 246 243 236 245 253 256 235 223 217 215 202 185 184 177 169 163 165 168 172 168 167 165 163 166 165 157 157 162
344 340 337 332 332 332 331 329 323 317 313 311 308 303 307 308 309 312 310 310 309 305 301 295 294 288 287 289 280 282 272 276 286 276 269 273 273 270 271 268 269 274 280 280 277 281 280 273 273 251 243 250 254 257 258 257 250 244 238 235 235 252 259 237 213 206 194 186 173 167 157 151 149 149 149 151 151 158 150 158 167 171 160 155 152
340 335 330 326 322 322 320 319 317 312 313 313 314 312 309 309 303 303 306 303 303 300 299 297 296 294 294 295 288 282 274 267 263 273 260 264 268 266 263 265 264 275 279 278 276 274 273 276 273 266 254 251 256 255 254 255 252 246 242 242 245 248 243 219 192 186 182 173 166 159 154 147 142 131 127 120 111 106 106 100 78 71 55 139 148
333 327 322 317 318 315 314 319 320 320 318 319 318 309 310 311 309 297 288 294 296 297 295 290 283 287 292 291 282 285 273 270 259 258 261 256 261 266 262 263 266 266 267 273 274 274 274 274 273 269 262 259 261 258 255 255 254 247 246 246 246 244 229 195 184 180 179 170 160 158 157 152 137 135 126 113 99 102 86 88 77 79 73 63 44
325 319 315 311 312 315 318 319 317 316 319 318 311 302 305 308 302 297 296 295 296 295 295 297 295 292 293 294 292 287 279 268 263 254 256 258 259 263 268 268 267 264 265 268 272 274 277 275 277 279 273 266 265 260 258 254 249 250 248 246 243 234 207 192 181 182 169 170 170 157 153 148 137 132 118 113 113 103 90 92 81 78 81 73 65
323 315 315 319 320 320 319 319 318 317 320 317 313 310 307 310 306 302 302 295 292 290 290 293 288 288 289 288 291 291 288 279 270 265 257 252 259 264 268 272 272 269 267 266 264 269 271 275 277 276 273 268 264 258 256 256 255 255 250 246 239 214 197 187 179 173 179 177 173 162 146 133 120 110 112 112 110 98 88 84 83 82 91 85 71
328 327 326 325 324 323 322 319 319 319 316 313 307 302 301 304 301 301 299 291 287 285 288 291 288 285 283 284 286 289 291 291 286 279 270 250 254 260 262 265 271 270 265 266 268 271 272 274 275 275 271 264 260 249 246 250 252 250 249 247 235 205 190 182 181 181 168 170 169 160 133 110 110 118 128 130 116 118 120 119 108 92 90 90 76
326 328 329 324 321 322 324 325 323 320 318 316 309 303 300 298 296 291 289 292 292 292 289 290 288 287 287 290 290 291 290 289 287 286 284 290 295 296 292 290 281 272 269 267 266 267 269 266 266 266 262 257 249 246 247 251 254 249 249 241 225 200 192 180 177 172 174 170 144 101 105 105 113 129 137 132 111 113 120 124 107 112 94 77 90
331 326 325 322 321 324 322 321 321 316 316 315 311 309 302 295 292 286 290 292 296 294 290 287 285 283 291 293 291 290 287 285 281 281 288 289 299 304 298 294 292 292 287 284 283 282 284 282 276 270 266 256 249 242 240 238 238 242 241 238 215 204 190 179 171 174 162 142 128 116 111 130 139 139 137 133 114 121 168 122 121 108 103 110 94
327 324 324 325 322 323 317 316 314 311 309 307 297 289 293 297 291 287 274 270 273 282 289 286 281 282 283 284 287 288 286 281 271 283 287 288 292 297 298 294 292 288 285 286 288 286 282 280 279 270 257 248 242 238 235 230 229 228 230 230 210 194 185 183 180 173 151 140 144 144 143 136 134 136 136 113 117 129 151 96 87 111 117 102 116
330 327 325 321 319 322 317 310 308 307 306 305 306 299 279 272 271 276 287 282 271 267 270 273 277 286 285 278 273 272 273 276 288 291 288 288 287 282 275 277 280 281 282 284 283 282 279 277 270 263 255 247 242 238 232 227 226 224 224 211 203 188 183 181 179 157 135 151 144 142 143 140 139 146 141 127 130 133 118 114 114 123 129 134 132
327 324 327 325 322 317 313 312 309 305 303 305 304 303 305 299 275 265 262 273 280 279 272 270 273 273 272 278 276 272 273 274 278 283 287 288 287 284 282 280 281 283 285 286 279 270 268 266 265 255 250 248 247 242 233 228 225 224 218 197 195 190 184 178 161 149 147 143 151 146 146 149 149 147 144 148 148 129 104 88 111 130 135 141 140
329 326 323 316 314 311 310 307 303 302 302 300 299 300 300 301 302 289 272 262 268 276 282 280 274 270 271 271 273 278 279 279 279 279 281 284 286 287 286 285 280 281 284 284 277 268 263 262 262 253 243 244 245 241 234 229 226 222 207 187 196 184 180 175 152 148 146 155 152 149 151 141 140 138 138 149 127 111 112 127 137 140 134 122 121
328 318 312 309 309 307 304 302 299 299 298 299 297 294 292 295 296 304 305 294 279 269 268 274 279 280 273 270 271 273 277 282 284 286 285 284 286 287 287 281 280 281 283 278 267 266 261 259 257 253 241 239 241 234 233 226 224 220 208 196 192 183 174 145 143 147 155 152 152 154 146 140 136 141 148 121 117 121 128 132 135 132 142 130 122
319 311 310 308 305 303 301 299 297 295 291 289 290 292 290 288 290 292 297 305 309 298 272 260 265 276 283 283 279 277 280 284 287 287 286 285 285 285 283 280 280 280 275 271 267 263 263 262 259 253 242 238 236 232 230 231 224 213 202 189 173 139 128 139 155 157 149 148 157 154 151 148 153 151 138 127 106 117 132 142 146 156 163 154 141
316 305 302 302 298 297 295 296 296 295 295 294 293 291 291 292 292 292 292 296 299 299 305 301 292 286 287 288 289 288 285 284 285 286 285 284 282 281 282 281 280 277 265 255 256 258 261 260 257 249 237 234 227 227 236 225 199 181 180 157 138 139 144 159 161 156 150 152 156 159 157 159 164 155 132 135 137 138 145 151 168 173 160 145 136
311 304 301 301 296 291 292 294 295 295 295 294 293 291 291 292 292 290 289 288 288 292 295 295 298 299 295 290 289 290 289 289 289 289 289 287 286 285 280 273 276 273 269 261 257 253 252 256 254 248 243 234 229 230 226 197 177 178 167 153 159 163 163 158 158 154 153 157 157 153 150 154 147 150 129 129 137 145 151 160 164 166 150 140 139
310 304 301 300 300 295 292 290 288 288 290 291 292 292 294 294 294 294 293 292 294 294 293 298 302 301 299 294 293 293 295 295 294 295 293 289 283 279 271 274 274 275 271 267 262 258 259 257 249 246 240 240 234 221 192 185 187 185 177 173 168 169 170 166 162 158 157 158 158 160 164 157 157 159 150 138 136 130 138 147 145 148 159 134 127
294 297 299 302 301 298 295 292 291 295 294 293 292 293 293 293 294 296 295 294 295 297 298 300 300 298 301 303 305 300 299 301 302 298 293 291 284 273 269 267 271 272 273 269 266 263 261 260 252 236 236 232 211 194 195 190 190 184 170 166 172 178 164 159 157 153 154 153 155 149 154 156 148 147 151 138 145 144 150 151 154 156 144 141 139
299 295 296 303 303 300 300 302 303 303 299 296 297 297 296 297 297 296 294 294 294 293 293 293 294 294 296 300 300 303 307 306 305 304 301 295 289 282 277 275 274 275 273 272 267 261 257 257 253 241 225 210 191 172 188 193 183 175 169 166 172 161 153 146 154 157 157 160 149 155 163 148 135 140 149 136 134 142 148 153 162 158 154 157 157
305 306 306 307 307 307 307 303 302 302 303 303 300 300 296 295 293 294 295 294 292 292 291 291 292 294 297 299 302 312 305 297 295 298 298 294 289 284 281 279 279 279 278 276 270 268 264 258 247 216 210 192 180 192 189 181 171 166 165 166 163 163 162 164 164 161 161 164 152 148 149 143 141 132 132 134 142 145 152 161 165 165 154 141 128
307 304 301 305 303 307 305 304 302 301 304 304 301 298 295 294 294 293 292 290 291 291 291 290 291 292 294 296 300 301 298 294 295 294 291 290 290 289 287 282 277 277 275 271 267 266 264 259 235 219 198 186 192 184 179 169 161 164 167 167 170 168 163 166 165 159 149 154 148 143 136 133 137 143 144 139 125 132 137 142 147 154 138 121 126
304 304 307 309 311 308 308 306 303 300 298 296 297 298 299 298 297 294 293 293 293 293 293 292 292 292 293 297 298 297 296 290 291 289 288 287 288 289 286 282 278 275 276 277 277 273 261 242 222 206 192 186 179 173 158 163 159 164 162 155 158 160 158 160 159 155 155 153 158 157 150 151 142 130 118 124 134 137 140 150 155 148 141 135 134
296 300 301 306 307 307 306 306 306 306 305 303 301 301 298 298 298 298 295 293 292 292 293 294 295 296 297 297 298 297 293 289 288 287 286 288 289 289 287 287 289 289 288 284 281 271 255 226 202 193 189 178 173 171 171 170 168 160 158 159 159 152 153 150 149 147 144 149 153 148 148 150 137 119 126 125 129 134 143 139 140 144 139 135 143
300 298 301 301 301 301 302 306 308 309 309 308 306 304 304 304 303 302 302 300 299 298 298 298 299 300 299 300 299 296 293 292 289 291 294 294 292 293 295 300 300 296 292 294 300 294 229 194 159 122 100 126 146 140 146 146 152 150 160 156 155 154 155 160 161 161 159 148 145 147 139 131 118 120 116 125 135 139 144 148 148 145 142 148 143
293 297 301 303 305 307 304 309 310 312 312 313 314 314 312 311 308 309 307 305 306 304 301 300 300 300 299 298 298 297 295 293 292 295 298 300 301 300 307 306 304 313 320 331 337 334 359 108 117 118 112 91 95 113 113 130 122 133 150 157 161 163 171 174 173 166 153 142 142 139 134 136 130 128 130 137 139 139 143 157 155 147 142 147 155
296 299 298 300 302 305 310 313 315 315 318 320 318 317 316 315 313 310 308 307 306 307 306 305 304 303 303 303 303 301 304 308 309 307 306 304 304 305 311 315 318 324 334 340 350 2 6 20 103 118 114 108 102 99 93 104 114 127 134 156 159 165 150 149 147 149 151 137 133 129 127 120 127 133 139 137 143 146 145 141 141 155 153 152 156
290 286 292 296 299 303 305 312 316 321 321 320 318 316 316 315 317 314 310 308 309 309 310 311 311 312 314 315 315 314 313 311 310 312 310 310 313 317 321 327 328 336 344 355 1 8 18 22 46 78 93 95 94 95 94 86 60 62 74 87 101 113 116 126 142 148 151 138 132 125 130 129 128 127 139 136 133 137 134 149 156 152 150 150 146
290 289 291 294 295 301 306 314 318 321 321 322 322 317 314 317 318 319 319 316 313 313 313 314 314 314 313 313 314 313 312 310 309 311 316 320 324 326 333 336 341 345 355 4 12 13 19 33 52 70 76 77 80 82 86 87 82 84 78 76 93 107 118 122 125 133 137 126 126 126 130 125 125 132 140 142 143 143 146 150 148 148 144 139 138
285 286 287 292 293 303 313 317 319 321 323 321 318 315 316 315 319 323 325 322 320 317 316 317 317 316 314 314 315 316 316 315 317 320 324 326 332 338 342 346 353 0 8 15 18 23 28 31 45 61 69 76 77 84 85 85 70 60 75 70 105 114 117 121 132 130 130 124 111 109 104 112 122 128 131 131 134 139 133 130 138 138 136 132 133
281 280 282 289 296 302 309 312 313 313 316 320 319 316 315 316 319 323 325 328 327 324 320 317 316 318 319 319 321 323 325 325 326 327 329 330 337 343 349 357 4 9 13 16 19 25 28 38 48 60 69 76 71 68 64 64 69 83 83 108 119 121 122 124 119 126 128 116 121 121 119 118 117 128 137 131 133 133 136 144 139 136 141 144 153
282 284 288 294 296 302 310 312 310 312 313 314 314 313 315 317 316 320 326 327 327 325 324 321 320 320 322 324 324 326 326 328 330 332 334 339 343 347 355 3 7 11 14 16 23 26 32 39 55 58 66 67 71 86 93 91 84 99 111 112 115 119 115 112 112 119 121 119 105 117 124 128 132 128 131 134 138 144 152 143 138 140 146 148 143